Simultaneous Nadir Overpasses (SNOs) Predictions

Prediction of SNOs between AQUA and METOP-B Satellite Orbit:

Table of predicted SNOs for the next 14.0 days since TLE Epoch: 11/10/2014
Index Date (AQUA) Time (AQUA) Lat,Lon (AQUA) SZA (AQUA ) Date (METOP-B) Time (METOP-B) Lat,Lon (METOP-B) SZA (METOP-B ) Distance(km) Time Diff (sec)
1 11/11/2014 07:53:43 -73.72,-123.98 88.95 11/11/2014 07:52:54 -73.70,-124.04 88.97 3.04 49
2 11/11/2014 08:43:12 73.79, 43.49 91.14 11/11/2014 08:43:32 73.79, 43.52 91.14 0.87 20
3 11/14/2014 03:27:53 -73.73, -57.54 88.18 11/14/2014 03:27:19 -73.75, -57.52 88.16 1.72 34
4 11/14/2014 04:17:22 73.81, 109.92 91.92 11/14/2014 04:17:58 73.79, 109.91 91.89 2.87 36
5 11/16/2014 22:12:23 73.05,-157.30 91.85 11/16/2014 22:11:17 73.04,-160.05 91.86 89.18 66
6 11/16/2014 23:02:02 -73.76, 8.86 87.43 11/16/2014 23:01:45 -73.74, 8.86 87.45 2.59 17
7 11/16/2014 23:51:30 73.79, 176.43 92.61 11/16/2014 23:52:23 73.82, 176.39 92.64 3.16 53
8 11/19/2014 17:46:42 73.68, -92.13 93.15 11/19/2014 17:45:30 73.66, -92.24 93.14 3.85 72
9 11/19/2014 18:36:09 -73.75, 75.36 86.77 11/19/2014 18:36:10 -73.77, 75.33 86.75 2.07 1
10 11/19/2014 19:25:37 73.84,-117.21 93.33 11/19/2014 19:26:47 73.85,-117.15 93.34 1.87 70
11 11/22/2014 13:20:48 73.74, -25.78 93.84 11/22/2014 13:19:53 73.73, -25.68 93.83 3.38 55
12 11/22/2014 14:10:15 -73.81, 141.71 86.09 11/22/2014 14:10:34 -73.79, 141.79 86.11 3.11 19




NCC Satellite Simultaneous Nadir Overpasses (SNOs) Prediction Service
